DW0465 Weather Reports


Display with metric or nautical units.
time (UTC)temp
F
wind
direction
speed
MPH
gust
MPH
rain 1hr
in
rain 24hr
in
rain mn
in
humidity
%
barometer
mb
20260902021550 63 127 0.0 0.0 0.00 0.00 0.00 59 1004.4
20260902020049 66 128 0.0 0.0 0.00 0.00 0.00 54 1004.3
20260902014549 67 128 0.0 0.0 0.00 0.00 0.00 51 1004.4
20260902013054 70 128 0.0 0.0 0.00 0.00 0.00 47 1004.4
20260902011548 73 128 0.0 0.0 0.00 0.00 0.00 41 1004.3
20260902010047 75 128 0.0 0.0 0.00 0.00 0.00 33 1004.2
20260902004547 75 113 0.0 0.0 0.00 0.00 0.00 35 1004.1
20260902003047 74 63 0.0 1.0 0.00 0.00 0.00 32 1004.1
20260902001600 75 55 0.0 0.0 0.00 0.00 0.00 32 1004.3
20260902000045 74 281 0.0 0.0 0.00 0.00 0.00 37 1004.4
20260901234542 72 297 0.0 1.0 0.00 0.00 0.00 38 1004.6
20260901233041 72 317 0.0 0.0 0.00 0.00 0.00 37 1004.6
20260901231542 73 299 0.0 1.0 0.00 0.00 0.00 36 1004.7
20260901230041 73 72 0.0 0.0 0.00 0.00 0.00 35 1004.7
20260901224540 74 71 0.0 0.0 0.00 0.00 0.00 35 1004.7
20260901223047 75 42 0.0 0.0 0.00 0.00 0.00 34 1004.6
20260901221554 74 242 0.0 0.0 0.00 0.00 0.00 35 1005.0
20260901220041 71 329 0.0 4.0 0.00 0.00 0.00 41 1005.0
20260901214536 70 252 1.0 7.0 0.00 0.00 0.00 45 1005.1
20260901213136 72 305 0.0 3.0 0.00 0.00 0.00 38 1004.9
20260901211535 74 344 0.0 10.0 0.00 0.00 0.00 35 1004.8
20260901210034 75 348 0.0 0.0 0.00 0.00 0.00 31 1004.8
20260901204533 75 355 0.0 1.0 0.00 0.00 0.00 29 1004.9
20260901203036 75 360 0.0 0.0 0.00 0.00 0.00 30 1004.8
20260901201530 75 313 0.0 0.0 0.00 0.00 0.00 31 1004.9
20260901200032 74 280 0.0 0.0 0.00 0.00 0.00 31 1005.0
20260901194526 75 292 0.0 0.0 0.00 0.00 0.00 29 1005.2
20260901193022 74 52 0.0 0.0 0.00 0.00 0.00 29 1005.5
20260901191546 74 51 0.0 3.0 0.00 0.00 0.00 29 1005.8
20260901190019 74 5 0.0 1.0 0.00 0.00 0.00 31 1005.7
20260901184516 74 60 0.0 0.0 0.00 0.00 0.00 31 1006.0
20260901183011 73 46 0.0 0.0 0.00 0.00 0.00 29 1006.2
20260901181508 73 254 0.0 1.0 0.00 0.00 0.00 29 1006.4
20260901180005 71 34 0.0 1.0 0.00 0.00 0.00 31 1006.7
20260901174502 71 229 0.0 1.0 0.00 0.00 0.00 32 1006.9
20260901173104 71 299 0.0 4.0 0.00 0.00 0.00 37 1007.0
20260901171605 71 325 0.0 4.0 0.00 0.00 0.00 34 1007.0
20260901170056 70 298 0.0 0.0 0.00 0.00 0.00 34 1007.1
20260901164552 68 228 0.0 0.0 0.00 0.00 0.00 40 1007.2
20260901163050 67 228 0.0 0.0 0.00 0.00 0.00 44 1007.1
20260901161605 67 228 0.0 0.0 0.00 0.00 0.00 36 1007.2
20260901160047 67 228 0.0 0.0 0.00 0.00 0.00 40 1007.1
20260901154552 65 226 0.0 0.0 0.00 0.00 0.00 41 1007.2
20260901153045 63 190 0.0 1.0 0.00 0.00 0.00 42 1007.2
20260901151534 62 204 0.0 1.0 0.00 0.00 0.00 46 1007.5
20260901150036 60 224 0.0 2.0 0.00 0.00 0.00 46 1007.7
20260901144535 59 204 0.0 0.0 0.00 0.00 0.00 50 1007.7
20260901143022 58 220 0.0 0.0 0.00 0.00 0.00 51 1007.8
20260901141517 57 205 0.0 0.0 0.00 0.00 0.00 50 1007.9
20260901140016 55 222 0.0 0.0 0.00 0.00 0.00 54 1008.0
20260901134512 54 221 0.0 0.0 0.00 0.00 0.00 56 1007.9
20260901133007 53 209 0.0 1.0 0.00 0.00 0.00 58 1007.8
20260901131506 53 209 0.0 1.0 0.00 0.00 0.00 58 1007.7
20260901130002 53 227 0.0 0.0 0.00 0.00 0.00 53 1007.8
20260901124601 53 178 0.0 0.0 0.00 0.00 0.00 47 1007.7
20260901123058 54 178 0.0 0.0 0.00 0.00 0.00 51 1007.9
20260901121558 55 167 0.0 1.0 0.00 0.00 0.00 52 1007.8
20260901120057 54 173 0.0 1.0 0.00 0.00 0.00 46 1007.8
20260901114637 55 159 0.0 0.0 0.00 0.00 0.00 53 1007.9
20260901113057 54 159 0.0 0.0 0.00 0.00 0.00 46 1007.8
20260901111557 53 206 0.0 0.0 0.00 0.00 0.00 52 1007.8
20260901110055 53 211 0.0 0.0 0.00 0.00 0.00 54 1007.7
20260901104553 53 211 0.0 0.0 0.00 0.00 0.00 57 1007.9
20260901103051 54 211 0.0 0.0 0.00 0.00 0.00 62 1008.0
20260901101550 54 213 0.0 0.0 0.00 0.00 0.00 47 1008.2
20260901100054 54 214 0.0 0.0 0.00 0.00 0.00 47 1008.2
20260901094546 55 213 0.0 0.0 0.00 0.00 0.00 46 1008.2
20260901093044 55 213 0.0 0.0 0.00 0.00 0.00 43 1008.5
20260901091544 55 208 0.0 0.0 0.00 0.00 0.00 42 1008.6
20260901090047 56 197 0.0 0.0 0.00 0.00 0.00 38 1008.9
20260901084544 56 174 0.0 1.0 0.00 0.00 0.00 38 1009.0
20260901083039 57 221 0.0 3.0 0.00 0.00 0.00 38 1009.0
20260901081534 54 192 0.0 1.0 0.00 0.00 0.00 41 1009.1
20260901080031 53 227 0.0 0.0 0.00 0.00 0.00 44 1009.1
20260901074528 53 211 0.0 2.0 0.00 0.00 0.00 45 1009.3
20260901073028 53 223 0.0 0.0 0.00 0.00 0.00 44 1009.4
20260901071524 52 245 0.0 0.0 0.00 0.00 0.00 45 1009.6
20260901070023 52 227 0.0 3.0 0.00 0.00 0.00 46 1009.7
20260901064522 53 209 0.0 4.0 0.00 0.00 0.00 44 1009.9
20260901063025 53 198 0.0 3.0 0.00 0.00 0.00 43 1009.9
20260901061517 53 226 0.0 0.0 0.00 0.00 0.00 45 1010.3
20260901060016 53 233 0.0 0.0 0.00 0.00 0.00 44 1010.5
20260901054513 53 211 0.0 1.0 0.00 0.00 0.00 43 1010.5
20260901053013 54 205 0.0 2.0 0.00 0.00 0.00 42 1010.5
20260901051512 55 211 0.0 1.0 0.00 0.00 0.00 41 1010.5
20260901050012 55 208 0.0 3.0 0.00 0.00 0.00 39 1010.7
20260901044526 55 219 0.0 1.0 0.00 0.00 0.00 39 1010.7
20260901043011 55 227 0.0 3.0 0.00 0.00 0.00 41 1010.7
20260901041522 56 207 0.0 2.0 0.00 0.00 0.00 39 1010.7
20260901040009 56 219 0.0 3.0 0.00 0.00 0.00 39 1010.6
20260901034508 56 225 0.0 1.0 0.00 0.00 0.00 38 1010.7
20260901033021 56 207 0.0 1.0 0.00 0.00 0.00 38 1010.6
20260901031509 58 216 0.0 0.0 0.00 0.00 0.00 37 1010.6
20260901030007 59 208 0.0 0.0 0.00 0.00 0.00 34 1010.3
20260901024506 60 197 0.0 0.0 0.00 0.00 0.00 40 1009.9
20260901023005 61 157 0.0 0.0 0.00 0.00 0.00 40 1009.8